Location: Iroquois Falls
(48.7680°N, 80.6732°W)
Time: 12:23:21
(UTC-04:00)

ISS - Visible Passes

Search period start: 10 October 2024 00:00
Search period end: 20 October 2024 00:00
Orbit: 412 x 424 km, 51.6° (Epoch: 10 October)

Date Brightness Start Highest point End Pass type
(mag) Time Alt. Az. Time Alt. Az. Time Alt. Az.
16 Oct -0.5 06:37:43 10° SSE 06:38:26 11° SE 06:39:10 10° ESE visible
18 Oct -1.6 06:36:18 10° SSW 06:39:02 24° SE 06:41:47 10° E visible
19 Oct -1.2 05:49:39 12° S 05:51:20 16° SE 05:53:29 10° E visible
